Flag for Canada Weather past 2 weeks in Cambridge, Ontario, Canada

39 °F


Feels Like: 39 °F
Forecast: 35 / 59 °F
Wind: 2 mph from Northwest

Location: Waterloo Well

Current Time: Oct 10, 2015 at 3:03:54 AM

Latest Report: Oct 10, 2015 at 2:00 AM

Visibility: 7 mi

Pressure: 30.16 "Hg

Humidity: 100%

Dew point: 39 °F

Location of CambridgeLocation

Historic Weather in Cambridge — Graph


Cambridge temperature yesterday

Maximum temperature yesterday: 57 °F (at 7:00 AM)
Minimum temperature yesterday: 43 °F (at 10:00 PM)
Average temperature yesterday: 53 °F

Past Weeks' High & Low Weather Summary

High72 °F (Sep 27, 4:00 PM)100% (Sep 26, 10:00 PM)30.46 "Hg (Sep 26, 10:00 PM)
Low36 °F (Oct 8, 4:56 AM)41% (Oct 1, 4:00 PM)29.79 "Hg (Oct 9, 5:00 AM)
Average54 °F81%30.19 "Hg
* Reported Sep 25 2:00 AM — Oct 10 2:00 AM, Cambridge, Weather by CustomWeather, © 2015

Note: Actual official high and low records may vary slightly from our data, if they occured in-between our weather recording intervals... More about our weather records


Cambridge weather history for previous 24 hours

Time TempWeatherWind HumidityBarometerVisibility
2:00 AM
Sat, Oct 10
39 °FClear.2 mph100%30.16 "Hg7 mi
1:49 AM39 °FClear.3 mph93%30.16 "Hg9 mi
1:01 AM39 °FLight rain. Fog.No wind100%30.16 "Hg1 mi
12:03 AM41 °FPassing clouds.3 mph100%30.16 "Hg8 mi
11:00 PM
Fri, Oct 9
43 °FClear.5 mph93%30.15 "Hg9 mi
10:00 PM43 °FClear.5 mph93%30.13 "Hg9 mi
9:00 PM45 °FClear.5 mph93%30.11 "Hg9 mi
8:00 PM48 °FPassing clouds.7 mph82%30.09 "Hg9 mi
7:00 PM50 °FScattered clouds.10 mph82%30.06 "Hg9 mi
6:00 PM52 °FBroken clouds.12 mph77%30.02 "Hg9 mi
5:04 PM52 °FMore clouds than sun.10 mph82%30.00 "Hg9 mi
4:00 PM52 °FMostly cloudy.16 mph82%29.96 "Hg9 mi
3:00 PM54 °FMostly cloudy.13 mph82%29.94 "Hg9 mi
2:00 PM54 °FOvercast.16 mph88%29.93 "Hg9 mi
1:00 PM55 °FMostly cloudy.13 mph82%29.91 "Hg9 mi
12:00 PM57 °FPartly sunny.13 mph88%29.88 "Hg9 mi
11:00 AM57 °FPartly sunny.16 mph88%29.86 "Hg9 mi
10:00 AM57 °FBroken clouds.14 mph94%29.84 "Hg9 mi
9:00 AM57 °FFog.7 mph94%29.83 "Hg6 mi
8:55 AM57 °FFog.8 mph94%29.82 "Hg6 mi
8:04 AM57 °FFog.8 mph94%29.81 "Hg3 mi
7:55 AM57 °FFog.7 mph94%29.81 "Hg3 mi
7:00 AM57 °FFog.7 mph94%29.80 "Hg1 mi
6:00 AM54 °FFog.2 mph94%29.80 "Hg1 mi
5:47 AM52 °FFog.No wind100%29.80 "Hg1 mi
5:00 AM52 °FLight rain. Fog.3 mph100%29.79 "Hg1 mi
4:03 AM52 °FFog.No wind94%29.80 "Hg2 mi
3:00 AM52 °FLight rain. Fog.2 mph94%29.83 "Hg4 mi
Weather by CustomWeather, © 2015

See weather overviewHow to use our weather pages